Deep River, CT

11:53 AM EST on December 06, 2016 (GMT -0500)
Chester

Weather History for KSNC - January, 2013

Change the Weather History Date:

Monday, January 14, 2013

  Actual Average (KHVN) Record (KHVN)
Temperature  
Mean Temperature 46 °F -  
Max Temperature 57 °F 33 °F 57 °F (2013)
Min Temperature 35 °F 21 °F 0 °F (1988)
Degree Days  
Heating Degree Days 19    
Moisture  
Dew Point 42 °F    
Average Humidity 83    
Maximum Humidity 100    
Minimum Humidity 50    
Precipitation  
Precipitation 0.16 in - - ()
Sea Level Pressure  
Sea Level Pressure 30.10 in    
Wind  
Wind Speed 7 mph (NW)    
Max Wind Speed 16 mph    
Max Gust Speed 21 mph    
Visibility 6 miles    
Events Fog , Rain    
Averages and records for this station are not official NWS values.
T = Trace of Precipitation, MM = Missing Value Source: NWS Daily Summary

Daily Weather History Graph

Daily Weather History Graph

Search for Another Location

Airport or City:

Trip Planner

Search our weather history database for the weather conditions in past years. The results will help you decide how hot, cold, wet, or windy it might be!

Date:

Astronomy

Jan. 14, 2013 Rise Set
Actual Time 7:14 AM EST 4:44 PM EST
Civil Twilight 6:43 AM EST 5:15 PM EST
Nautical Twilight 6:09 AM EST 5:49 PM EST
Astronomical Twilight 5:36 AM EST 6:22 PM EST
Moon 8:43 AM EST (1/14) 8:30 PM EST (1/14)
Length of Visible Light 10h 31m
Length of Day
9h 30m
Waxing Crescent, 11% of the Moon is Illuminated
Jan 14
Waxing Crescent
Jan 18
First Quarter
Jan 26
Full
Feb 3
Last Quarter
Feb 10
New

Hourly Weather History & Observations

Time (EST) Temp. Windchill Dew Point Humidity Pressure Visibility Wind Dir Wind Speed Gust Speed Precip Events Conditions
12:55 AM 48.2 °F - 48.2 °F 100% 30.02 in 0.2 mi SSW 6.9 mph - N/A Fog Fog
1:15 AM 48.2 °F - 48.2 °F 100% 30.03 in 0.5 mi SW 6.9 mph - N/A Fog Fog
1:35 AM 48.2 °F - 48.2 °F 100% 30.03 in 0.5 mi WSW 4.6 mph - N/A Fog Fog
1:55 AM 48.2 °F - 48.2 °F 100% 30.02 in 0.2 mi SW 5.8 mph - N/A Fog Fog
2:15 AM 48.2 °F - 48.2 °F 100% 30.02 in 0.5 mi SSW 4.6 mph - N/A Fog Fog
2:35 AM 48.2 °F - 48.2 °F 100% 30.02 in 0.2 mi SW 3.5 mph - N/A Fog Fog
2:55 AM 48.2 °F - 48.2 °F 100% 30.00 in 0.2 mi SW 3.5 mph - N/A Fog Fog
3:35 AM 48.2 °F - 48.2 °F 100% 30.00 in 2.0 mi WSW 5.8 mph - N/A   Overcast
3:55 AM 48.2 °F - 48.2 °F 100% 30.00 in 0.8 mi WSW 4.6 mph - N/A   Overcast
4:15 AM 48.2 °F - 48.2 °F 100% 30.00 in 0.2 mi SSW 5.8 mph - N/A Fog Fog
4:35 AM 48.2 °F - 48.2 °F 100% 30.00 in 0.2 mi SW 5.8 mph - N/A Fog Fog
4:55 AM 48.2 °F - 48.2 °F 100% 30.00 in 0.2 mi SW 4.6 mph - N/A Fog Fog
5:15 AM 48.2 °F - 48.2 °F 100% 29.99 in 0.5 mi SW 8.1 mph - N/A Fog Fog
5:35 AM 48.2 °F - 48.2 °F 100% 29.99 in 0.2 mi SW 6.9 mph - N/A Fog Fog
5:55 AM 48.2 °F - 48.2 °F 100% 29.97 in 0.2 mi South 5.8 mph - N/A Fog Fog
6:15 AM 48.2 °F - 48.2 °F 100% 29.96 in 0.2 mi SSE 6.9 mph - N/A Fog Fog
6:35 AM 48.2 °F - 48.2 °F 100% 29.96 in 0.2 mi SSE 4.6 mph - 0.01 in Rain Heavy Rain
6:55 AM 48.2 °F - 48.2 °F 100% 29.95 in 0.2 mi SW 6.9 mph - 0.01 in Fog Fog
7:15 AM 48.2 °F - 48.2 °F 100% 30.00 in 0.2 mi West 8.1 mph - N/A Fog Fog
7:35 AM 48.2 °F - 48.2 °F 100% 30.04 in 0.2 mi West 5.8 mph - N/A Fog Fog
7:55 AM 48.2 °F - 48.2 °F 100% 30.04 in 0.2 mi WSW 4.6 mph - N/A Fog Fog
8:15 AM 50.0 °F - 50.0 °F 100% 30.04 in 0.2 mi West 4.6 mph - N/A Fog Fog
8:35 AM 50.0 °F - 50.0 °F 100% 30.03 in 0.2 mi SW 6.9 mph - N/A Fog Fog
8:55 AM 51.8 °F - 51.8 °F 100% 30.02 in 0.2 mi West 8.1 mph - N/A Fog Fog
9:15 AM 51.8 °F - 51.8 °F 100% 30.03 in 0.5 mi WSW 11.5 mph 17.3 mph N/A Fog Fog
9:35 AM 51.8 °F - 51.8 °F 100% 30.04 in 1.5 mi West 8.1 mph 16.1 mph N/A   Overcast
9:55 AM 51.8 °F - 51.8 °F 100% 30.05 in 5.0 mi West 9.2 mph - N/A   Overcast
10:15 AM 51.8 °F - 51.8 °F 100% 30.04 in 7.0 mi NW 6.9 mph - N/A   Overcast
10:35 AM 51.8 °F - 51.8 °F 100% 30.04 in 10.0 mi NNW 8.1 mph - N/A   Overcast
10:55 AM 51.8 °F - 51.8 °F 100% 30.03 in 9.0 mi NNW 9.2 mph - N/A   Overcast
11:15 AM 53.6 °F - 53.6 °F 100% 30.03 in 10.0 mi NNW 4.6 mph - N/A   Mostly Cloudy
11:35 AM 53.6 °F - 53.6 °F 100% 30.03 in 10.0 mi North 6.9 mph - N/A   Scattered Clouds
11:55 AM 55.4 °F - 55.4 °F 100% 30.04 in 10.0 mi NW 8.1 mph - N/A   Partly Cloudy
12:15 PM 55.4 °F - 53.6 °F 94% 30.04 in 10.0 mi NNW 8.1 mph - N/A   Mostly Cloudy
12:35 PM 55.4 °F - 50.0 °F 82% 30.06 in 10.0 mi NNW 12.7 mph 19.6 mph N/A   Overcast
12:55 PM 57.2 °F - 48.2 °F 72% 30.05 in 10.0 mi North 13.8 mph - N/A   Overcast
1:15 PM 55.4 °F - 48.2 °F 77% 30.06 in 10.0 mi North 12.7 mph - N/A   Mostly Cloudy
1:35 PM 55.4 °F - 44.6 °F 67% 30.08 in 10.0 mi North 10.4 mph 20.7 mph N/A   Mostly Cloudy
2:15 PM 53.6 °F - 41.0 °F 62% 30.09 in 10.0 mi North 16.1 mph - N/A   Clear
2:35 PM 51.8 °F - 39.2 °F 62% 30.11 in 10.0 mi NNW 9.2 mph - N/A   Clear
2:55 PM 51.8 °F - 39.2 °F 62% 30.11 in 10.0 mi North 10.4 mph - N/A   Scattered Clouds
3:15 PM 50.0 °F - 37.4 °F 62% 30.12 in 10.0 mi North 12.7 mph 18.4 mph N/A   Partly Cloudy
3:35 PM 50.0 °F - 35.6 °F 58% 30.12 in 10.0 mi North 11.5 mph 17.3 mph N/A   Clear
3:55 PM 48.2 °F - 32.0 °F 54% 30.15 in 10.0 mi North 13.8 mph 20.7 mph N/A   Scattered Clouds
4:15 PM 48.2 °F - 30.2 °F 50% 30.15 in 10.0 mi NNW 9.2 mph - N/A   Overcast
4:35 PM 46.4 °F 42.4 °F 30.2 °F 53% 30.16 in 10.0 mi NNW 8.1 mph 19.6 mph N/A   Mostly Cloudy
4:55 PM 46.4 °F 42.4 °F 30.2 °F 53% 30.15 in 10.0 mi North 8.1 mph - N/A   Mostly Cloudy
5:15 PM 46.4 °F 42.9 °F 28.4 °F 50% 30.15 in 10.0 mi NNW 6.9 mph - N/A   Mostly Cloudy
5:35 PM 44.6 °F 39.7 °F 28.4 °F 53% 30.15 in 10.0 mi North 9.2 mph - N/A   Mostly Cloudy
5:55 PM 44.6 °F 41.4 °F 28.4 °F 53% 30.17 in 10.0 mi North 5.8 mph - N/A   Mostly Cloudy
6:15 PM 44.6 °F 40.7 °F 28.4 °F 53% 30.18 in 10.0 mi NNW 6.9 mph - N/A   Mostly Cloudy
6:35 PM 44.6 °F 40.7 °F 28.4 °F 53% 30.18 in 10.0 mi NNW 6.9 mph - N/A   Overcast
6:55 PM 44.6 °F 40.7 °F 28.4 °F 53% 30.20 in 10.0 mi NNW 6.9 mph - N/A   Overcast
7:15 PM 42.8 °F 39.3 °F 28.4 °F 57% 30.21 in 10.0 mi NNW 5.8 mph - N/A   Overcast
7:35 PM 42.8 °F 36.6 °F 28.4 °F 57% 30.22 in 10.0 mi NNW 11.5 mph - N/A   Overcast
7:55 PM 42.8 °F 38.0 °F 28.4 °F 57% 30.24 in 10.0 mi NNW 8.1 mph - N/A   Overcast
8:35 PM 41.0 °F 34.7 °F 28.4 °F 61% 30.23 in 10.0 mi North 10.4 mph 19.6 mph N/A   Overcast
8:55 PM 39.2 °F 32.5 °F 28.4 °F 65% 30.25 in 10.0 mi NNW 10.4 mph - N/A   Overcast
9:15 PM 39.2 °F 32.0 °F 28.4 °F 65% 30.21 in 10.0 mi North 11.5 mph 20.7 mph N/A Rain Light Rain
9:35 PM 39.2 °F 32.5 °F 28.4 °F 65% 30.26 in 10.0 mi NNW 10.4 mph - N/A Rain Rain
9:55 PM 37.4 °F 29.8 °F 32.0 °F 81% 30.26 in 8.0 mi NNW 11.5 mph - 0.03 in Rain Rain
10:15 PM 35.6 °F 28.0 °F 32.0 °F 87% 30.25 in 8.0 mi NNW 10.4 mph 17.3 mph 0.02 in Rain Light Rain
10:35 PM 35.6 °F 29.2 °F 32.0 °F 87% 30.26 in 6.0 mi NNW 8.1 mph - 0.06 in Rain Light Rain
10:55 PM 35.6 °F 29.2 °F 32.0 °F 87% 30.27 in 10.0 mi NNW 8.1 mph - 0.06 in   Scattered Clouds
11:15 PM 35.6 °F 29.2 °F 32.0 °F 87% 30.26 in 8.0 mi North 8.1 mph - 0.01 in Rain Rain
11:35 PM 35.6 °F 29.9 °F 32.0 °F 87% 30.26 in 9.0 mi North 6.9 mph - 0.03 in Rain Light Rain
11:55 PM 35.6 °F 29.9 °F 32.0 °F 87% 30.26 in 9.0 mi NNE 6.9 mph - 0.06 in Rain Rain